Regional Weather Roundup
Issued by NWS

Home | Current Version | Previous Version | Graphics & Text | Print | Product List | Glossary On
Versions: 1 2 3 4 5 6 7 8 9 10 11 12 13 14 15 16 17 18 19 20 21 22 23 24 25 26 27 28 29 30 31 32 33 34 35 36 37 38 39 40 41 42 43 44 45 46 47 48 49
000
ASUS45 KBOU 252307
RWRCO

WEATHER ROUNDUP FOR COLORADO
NATIONAL WEATHER SERVICE DENVER/BOULDER CO
500 PM MDT MON MAY 25 2015

NOTE: "FAIR" INDICATES FEW OR NO CLOUDS BELOW 12000 FEET WITH NO
SIGNIFICANT WEATHER AND/OR OBSTRUCTIONS TO VISIBILITY.

COZ001>005-013-030-031-260000-
...NORTHWEST COLORADO...

CITY           SKY/WX    TMP DP  RH WIND       PRES   REMARKS
CRAIG          PTSUNNY   60  41  49 CALM      29.99F
HAYDEN         PTSUNNY   55  37  50 N10       30.01R
MEEKER         PTSUNNY   61  42  49 SW12      29.99F
MOUNT WERNER   NOT AVBL
STEAMBOAT SPGS PTSUNNY   55  37  51 CALM      30.01S
WALDEN         CLOUDY    46  34  61 E3        30.06R
$$

COZ006>008-011-260000-
...WEST CENTRAL VALLEYS...

CITY           SKY/WX    TMP DP  RH WIND       PRES   REMARKS
GRAND JUNCTION PTSUNNY   66  43  43 NW12G18   29.94F
MONTROSE       MOSUNNY   63  40  42 S6        30.01F
EAGLE          LGT RAIN  52  46  82 VRB7      30.04R
RIFLE          MOSUNNY   62  41  46 VRB3      29.97F
DELTA          MOSUNNY   67  43  41 MISG      29.97R
NUCLA          MOSUNNY   59  41  51 S14       30.05R THUNDER
$$

COZ017>023-064>068-260000-
...SOUTHWEST COLORADO...

CITY           SKY/WX    TMP DP  RH WIND       PRES   REMARKS
DURANGO        CLOUDY    51  45  79 W6        30.06R
CORTEZ         MOSUNNY   54  46  74 E12       30.04F
PAGOSA SPRINGS CLOUDY    53  40  62 E3        30.08F
TELLURIDE      CLOUDY    45  40  82 E5        30.15S
WOLF CREEK PAS NOT AVBL
$$

COZ009-010-012-014-032>034-037-058>063-260000-
...CENTRAL COLORADO...

CITY           SKY/WX    TMP DP  RH WIND       PRES   REMARKS
ASPEN          LGT RAIN  47  40  76 SW10      30.06S
BUENA VISTA    CLOUDY    55  35  46 E10       30.00S
COPPER MTN     SNOW      34  30  86 W7G16     30.21R VSB 1/4 WCI  28
BERTHOUD PASS  FAIR      28  21  74 W15G24    30.22R THUNDER WCI  17
COTTONWOOD PAS CLOUDY    52  28  40 W10G18    30.09F
GUNNISON       PTSUNNY   55  34  44 W9G20     30.06R
KREMMLING      CLOUDY    54  36  50 W14G20    30.04R
LEADVILLE      PTSUNNY   49  30  48 N15G25    30.10R
MONARCH PASS     N/A     32  32 100 W22       30.29S WCI  19
SALIDA         MOSUNNY   60  32  34 NW3       30.06S
SUNLIGHT       CLOUDY    39  37  93 CALM      30.21R FOG
WILKERSON PASS CLOUDY    41  30  65 CALM      30.18R
$$

COZ069>075-260000-
...SAN LUIS VALLEY/SANGRE DE CRISTO MOUNTAINS...

CITY           SKY/WX    TMP DP  RH WIND       PRES   REMARKS
ALAMOSA        CLOUDY    60  31  33 W14       30.01R
LA VETA PASS   CLOUDY   N/A N/A N/A MISG      30.11R
SAGUACHE       PTSUNNY   59  36  41 SW16      30.01S
$$

COZ035-036-038>040-260000-
...NORTHERN COLORADO FRONT RANGE...

CITY           SKY/WX    TMP DP  RH WIND       PRES   REMARKS
DENVER INTL AP PTSUNNY   62  45  53 E17G26    29.91S
DMNS CITY PARK   N/A     65  41  41 E10G18    29.91R
AURORA         NOT AVBL
FRONT RANGE AP NOT AVBL
ERIE MUNI ARPT PTSUNNY   61  45  54 E17G23    29.92R
BOULDER MUN AP TSTM      59  46  63 NE15G21   29.92R
CENTENNIAL     PTSUNNY   62  37  39 E8        29.92R THUNDER
BROOMFIELD     CLOUDY    63  41  45 NE12      29.93R
FORT COLLINS   CLOUDY    54  46  76 E8        29.95S
LONGMONT       CLOUDY    62  46  55 NE18G25   29.94R
$$

COZ041-046-047-076>085-087-088-260000-
...PIKES PEAK/PALMER DIVIDE AND SOUTHERN FOOTHILLS...

CITY           SKY/WX    TMP DP  RH WIND       PRES   REMARKS
COLO. SPRINGS  TSTM      54  44  69 E12       29.98R
A. F. ACADEMY  NOT AVBL
ELLICOTT       NOT AVBL
FALCON         CLOUDY    55  39  55 SE12      30.01R
FORT CARSON    NOT AVBL
LIMON          PTSUNNY   61  38  42 CALM      29.92S
MONUMENT HILL  NOT AVBL
TRINIDAD       PTSUNNY   57  45  64 SE13      29.95S
$$

COZ042>045-048>051-090-091-260000-
...NORTHEAST COLORADO...

CITY           SKY/WX    TMP DP  RH WIND       PRES   REMARKS
GREELEY ARPT   CLOUDY    55  45  67 N7        29.94R
AKRON          CLOUDY    58  46  64 N15       29.90F
BURLINGTON     MOSUNNY   67  43  41 NW8G18    29.88F
WRAY           MOSUNNY   65  46  49 NW20G26   29.86S
STERLING       CLOUDY    61  48  63 N15       29.88F
HOLYOKE        NOT AVBL
FORT MORGAN    CLOUDY    60  45  56 N10       29.93S
$$

COZ086-089-092>099-260000-
...SOUTHEAST COLORADO...

CITY           SKY/WX    TMP DP  RH WIND       PRES   REMARKS
PUEBLO         LGT RAIN  63  45  51 S10       29.90R
LA JUNTA       CLOUDY    68  49  50 NE10      29.87S
LAMAR          SUNNY     71  48  43 NE5       29.83F
SPRINGFIELD      N/A     71  40  32 W6        29.86F
$$



USA.gov is the U.S. government's official web portal to all federal, state and local government web resources and services.